Regional Weather Roundup
Issued by NWS Wakefield, VA

Home | Current Version | Previous Version | Graphics & Text | Print | Product List | Glossary On
Versions: 1 2 3 4 5 6 7 8 9 10 11 12 13 14 15 16 17 18 19 20 21 22 23 24 25 26 27 28 29 30 31 32 33 34 35 36 37 38 39 40 41 42 43 44 45 46 47 48 49 50
905
ASUS41 KAKQ 220115
RWRAKQ

REGIONAL WEATHER ROUNDUP
NATIONAL WEATHER SERVICE WAKEFIELD VA
900 PM EDT MON AUG 21 2017

Note: "fair" indicates few or no clouds below 12,000 feet with no
significant weather and/or obstructions to visibility. * = Denotes
station may not report precipitation (e.g., rain,snow,etc.),
thunder or fog.

VAZ042-051-052>054-056-220200-
NORTHERN VIRGINIA

CITY           SKY/WX    TMP DP  RH WIND       PRES   REMARKS
WASH NATIONAL  MOCLDY    79  72  79 SW6       30.12F
DULLES         PTCLDY    76  74  93 S6        30.14R
FORT BELVOIR   CLEAR     75  71  86 CALM      30.12F
QUANTICO       CLOUDY    78  76  93 SW6       30.13F
FREDERICKSBRG* CLOUDY    76  76 100 E3        30.13F
STAFFORD*      MOCLDY    74  74 100 CALM      30.18F
WARRENTON      CLOUDY    71  66  84 CALM      30.15R
CULPEPER*      CLOUDY    73  69  87 CALM      30.15R
MANASSAS*      CLEAR     75  73  93 CALM      30.14S
LEESBURG*      CLEAR     79  72  78 S6        30.15R
WINCHESTER     CLEAR     73  68  83 CALM      30.13S
FRONT ROYAL*   CLEAR     75  70  83 CALM      30.13R
LURAY*         RAIN      73  72  94 SE3       30.16R
$$

VAZ048-049-060>072-079>083-220200-
CENTRAL AND SOUTH CENTRAL VIRGINIA

CITY           SKY/WX    TMP DP  RH WIND       PRES   REMARKS
RICHMOND       MOCLDY    79  74  84 SE5       30.15R
CHESTERFIELD*  FAIR      78  74  87 S5        30.16R
PETERSBURG*    CLEAR     75  75 100 CALM      30.16S
HANOVER        MOCLDY    79  71  76 VRB3      30.15S
TAPPAHANNOCK*  MOCLDY    81  71  72 S5        30.15S
QUINTON*       FAIR     N/A N/A N/A E7        30.15R
CHARLOTTSVILLE PTCLDY    81  69  67 S7        30.14S
GORDONSVILLE*  CLOUDY    75  71  87 CALM      30.14F
ORANGE*        CLOUDY    72  70  94 CALM      30.14S
LOUISA*        CLOUDY    73  72  94 CALM      30.15S
BUMPASS*       MOCLDY    75  75 100 CALM      30.15S
FARMVILLE*     MOCLDY    80  68  66 S3        30.14S
CREWE*         MOCLDY    76  72  86 CALM      30.16S
FORT PICKETT*  MOCLDY   N/A N/A N/A S3        30.17R
CHASE CITY*    FAIR      77  77  99 CALM      30.17S
CLARKSVILLE*   FAIR      77  75  94 CALM      30.17R
SOUTH HILL*    CLEAR     74  74  99 CALM      30.22S
LAWRENCEVILLE* FAIR      75  73  94 CALM      30.17R
EMPORIA*         N/A     73  72  94 CALM      30.18R
$$

VAZ088>098-220200-
SOUTHEAST VIRGINIA

CITY           SKY/WX    TMP DP  RH WIND       PRES   REMARKS
NORFOLK        CLEAR     82  76  81 S7        30.16R
VIRGINIA BEACH PTCLDY    79  75  87 S6        30.16R
NORFOLK NAVAL  PTCLDY    82  73  74 S5        30.17R
WEST POINT*    PTCLDY    80  72  76 S5        30.16S
SALUDA*        FAIR      79  77  95 S3        30.14S
NEWPORT NEWS   PTCLDY    80  71  74 SW7       30.15R
LANGLEY AFB    CLEAR     82  73  74 S6        30.15R
FORT EUSTIS    CLEAR     82  74  76 S5        30.13R
WILLIAMSBURG*  CLEAR     81  73  78 CALM      30.16R
HR EXEC AP*    FAIR      73  70  88 S5        30.14R
FRANKLIN*      CLEAR     78  74  87 CALM      30.17R
US460-WAKEFLD  CLEAR     76  75  97 CALM      30.16R
$$

VAZ020-022-025-037-045-220200-
WEST CENTRAL AND SOUTHWEST VIRGINIA

CITY           SKY/WX    TMP DP  RH WIND       PRES   REMARKS
STAUNTON*      CLEAR     78  68  72 S3        30.18S
WAYNESBORO*    PTCLDY    79  71  76 S6        30.19S
HOT SPRINGS VA CLEAR     70  61  73 CALM      30.33S
LYNCHBURG      CLOUDY    73  72  96 CALM      30.18R
DANVILLE       LGT RAIN  74  71  91 CALM      30.16R
SOUTH BOSTON*  FAIR      76  75  95 CALM      30.17R
MARTINSVILLE   MOCLDY    74  72  94 CALM      30.20S
ROANOKE        PTCLDY    76  72  87 NE3       30.21R
BLACKSBURG     HVY RAIN  73  69  89 SW10G18   30.29R
DUBLIN*        PTCLDY    74  71  89 CALM      30.26R
MARION*        PTCLDY    75  30  19 CALM      30.29R
HILLSVILLE*    PTCLDY    73  64  72 CALM      30.28R
RICHLANDS*     FAIR      76  58  53 CALM      30.27S
WISE*          CLEAR     73  63  68 CALM      30.28S
ABINGDON*      CLEAR     77  70  79 CALM      30.23S
$$

MDZ021>025-VAZ099-100-220200-
SOUTHERN MARYLAND AND THE DELMARVA PENINSULA

CITY           SKY/WX    TMP DP  RH WIND       PRES   REMARKS
PATUXENT RIVER CLOUDY    78  76  93 S5        30.13R
BAY BRIDGE APT CLOUDY    79  73  83 S7        30.13R
LEONARDTOWN    CLOUDY    75  72  88 CALM      30.15S
DOVER          MOCLDY    78  78 100 S9        30.12S
GEORGETOWN     CLOUDY    78  72  81 S7        30.15R
EASTON         NOT AVBL
CAMBRIDGE      CLEAR     79  73  83 CALM      30.14R
SALISBURY      CLOUDY    76  74  93 SE5       30.14S
OCEAN CITY     CLOUDY    78  75  90 S6        30.16R
WALLOPS ISLAND CLOUDY    78  75  90 S7        30.16R
ACCOMACK*      MOCLDY    77  74  91 SE8       30.15S
$$

NCZ012>017-030>032-220200-
NORTH CENTRAL AND EASTERN NORTH CAROLINA

CITY           SKY/WX    TMP DP  RH WIND       PRES   REMARKS
ROANOKE RAPIDS FAIR      73  73 100 CALM      30.17R
RALEIGH        PTCLDY    82  71  69 SE5       30.17R
ELIZABETH CITY CLEAR     81  78  91 SE7       30.17R
AHOSKIE*         N/A     75  74  98 S3        30.17R
EDENTON*       CLEAR     83  75  76 CALM      30.17S
CURRITUCK*     CLEAR     79  76  91 CALM      30.18R
KILL DEVIL HLS PTCLDY    79  75  90 CALM      30.16R
MANTEO         PTCLDY    80  74  84 S5        30.17S
CAPE HATTERAS  CLEAR     78  76  93 CALM      30.18R
TARBORO*       NOT AVBL
GOLDSBORO      CLEAR     82  79  92 SE3       30.15R
WASHINGTON     CLEAR     79  75  87 SE3       30.16S
GREENVILLE     CLEAR     81  73  78 SE3       30.17S
NEW BERN       CLEAR     78  74  87 S5        30.18R
WILMINGTON     CLOUDY    80  77  90 S3        30.16S
$$

VAZ048-220200-
ELSEWHERE

CITY           SKY/WX    TMP DP  RH WIND       PRES   REMARKS
HARRISBURG PA  MOCLDY    78  70  76 E8        30.11R
BALTIMORE      MOCLDY    74  73  97 S3        30.11S
ANNAPOLIS      CLEAR     80  77  90 CALM      30.12R
ANDREWS AFB    CLEAR     75  70  83 S3        30.12S
PHILADELPHIA   MOCLDY    80  72  76 S7        30.13R
HENDERSON NC   CLEAR     76  70  81 CALM      30.17R
GREENSBORO     MOCLDY    79  65  62 S6        30.17R
ROCKY MOUNT    CLEAR     77  76  96 CALM      30.16R
$$

VAZ100-220200-
MARINE

STATION/POSITION TIME  TEMP    WIND        PRES    WAVE   SWELL
                       AIR SEA DIR/SP/G            HT/PER HT/PER
                 (UTC) (F)     (DEG/KT/KT) (MB)    (FT/S) (FT/S)
BRANDYWINE LGT   0048   78     210/ 12/ 13 1021.0R
CAPE MAY NJ      0042   77 78  180/  6/  9 1020.3R
LEWES DE         0048   79 78  190/  3/  6 1020.5R
15NM E FENWICK I 0050   78 79  190/ 12/ 14 1021.4R   2/ 4   2/ 8
OCEAN-CITY-INLET 0048   78 79  200/  7/ 10 1021.4R
WACHAPREAGUE VA  0048   80 84  190/  8/ 10 1021.2R
THOMAS POINT MD  0100   80 81  230/ 10/ 10   N/A
GOOSES REEF MD   0100   81 81  200/  8/ 10 1020.9    1/ 3
COVE POINT MD    0048   81     200/ 11/ 14 1020.9R
SOLOMONS ISLAND  0048   80 83  190/  3/  5   N/A
BISHOPS HEAD MD  0048   82 84  180/ 11/ 12 1020.5F
PINEY POINT MD   0036          180/  6/  7   N/A
POTOMAC MD       0100   82 83  170/ 10/ 12 1019.7    1/ 3
CAMBRIDGE MD     0048   80 83              1021.3R
LEWISETTA VA     0048   81 85  210/  6/  7 1020.2S
RAPPAHANNOCK LGT 0036          140/ 10/ 12 1021.4R
STINGRAY PT      0100   82 83  210/ 10/ 12 1021.0    1/ 2
YORK RVR RNG VA  0048   83     210/  6/  7 1021.3R
YORKTOWN VA      0048   80 83  220/  5/  5 1020.6R
JAMESTOWN VA     0100      85  200/  4/  6   N/A     0
DOMINION TERM VA 0048   84     180/  8/ 10 1021.1R
KIPTOPEKE VA     0036      82  170/ 10/ 12   N/A
CHES BAY BRIDGE  0036   82 80  190/  9/ 11 1020.9R
CAPE HENRY VA    0036   79     160/  6/  7   N/A
WILLOUBY STN VA  0036   84     190/ 10/ 11 1021.0S
S CRANEY ISL VA  0036   84     190/  5/  9 1020.9R
CAPE HENRY BUOY  0100      81                N/A     2/11
1ST LANDING BUOY 0100   81 80              1021.0    1/ 3
64NM E OF VA BCH 0050   79 80  150/  6/  8 1022.1R   2/ 9   2/ 9
DUCK PIER NC     0036   81 77  150/ 10/ 11 1021.2R
44100 DUCK FRF   0005      81                N/A     2/ 8
44056 DUCK FRF   0100      82                N/A     2/ 8
OREGON INLET NC  0036   79 85  130/  4/  5 1021.6R
HATTERAS NC      0036   81 81  150/  3/  3 1021.7R
DIAMOND SHLS NC  0050   83 84   CALM  /  2 1021.6R   2/ 9   2/ 9
CAPE LOOKOUT NC  0100   81     140/  5/  6 1021.3R
$$




USA.gov is the U.S. government's official web portal to all federal, state and local government web resources and services.